Location: Halvern
(37.6252°N, 122.0525°W)
Time: 01:35:01
(UTC+00:00)

Hubble Space Telescope - Visible Passes

Search period start: 14 July 2024 00:00
Search period end: 24 July 2024 00:00
Orbit: 510 x 513 km, 28.5° (Epoch: 13 July)

Date Brightness Start Highest point End Pass type
(mag) Time Alt. Az. Time Alt. Az. Time Alt. Az.
14 Jul 2.4 05:20:13 10° SW 05:22:04 19° SSW 05:22:04 19° SSW visible
15 Jul 2.1 05:00:48 10° SW 05:03:51 22° S 05:03:51 22° S visible
16 Jul 2.1 04:41:23 10° SW 04:44:28 21° S 04:45:32 19° SSE visible
17 Jul 2.2 04:21:58 10° SW 04:25:01 21° S 04:27:08 14° SE visible
18 Jul 2.3 04:02:33 10° SW 04:05:34 21° S 04:08:36 10° SE visible
19 Jul 3.2 05:24:40 10° SW 05:24:57 11° SW 05:24:57 11° SW visible
20 Jul 3.1 05:05:50 10° SSW 05:06:27 10° SSW 05:06:27 10° SSW visible
